This demonstration page uses our WeatherBlox Daily Observations layout. Learn more.

Left ArrowRight Arrow

34.02893, -84.19858

Hourly Observations for February 15, 2017

Temp ( °F °C ) Dew Point ( °F °C ) Humidity (%) Winds ( mph kmh ) Pressure ( in mb ) Visibility ( mi km ) Precip ( " mm )
12:53 am 00:53 Cloudy 52 11.1 36 2.2 55 55 Calm 29.73 1007 10 16 0.00 0.00
1:53 am 01:53 Cloudy 52 11.1 36 2.2 55 55 Calm 29.69 1006 10 16 0.00 0.00
2:53 am 02:53 Cloudy 51 10.6 39 3.9 64 64 Calm 29.66 1004 10 16 0.00 0.00
3:53 am 03:53 Cloudy 55 12.8 35 1.7 47 47 S 6 9 29.60 1003 10 16 0.00 0.00
4:42 am 04:42 Cloudy 57 14 45 7 63 63 SSW 6 9 29.59 1002 10 16 0.00 0.00
4:53 am 04:53 Cloudy 58 14.4 47 8.3 67 67 S 7 11 29.57 1001 10 16 0.00 0.00
5:46 am 05:46 Cloudy with Nearby Thunderstorms 57 14 52 11 82 82 S 12 19 29.56 1001 6 10 0.00 0.00
5:53 am 05:53 Cloudy with Nearby Thunderstorms 57 13.9 53 11.7 87 87 SSW 8 13 29.56 1001 5 8 0.02 0.51
6:01 am 06:01 Cloudy with Heavy Rain 54 12.2 49 9.4 83 83 NW 24 39 29.65 1004 3 4 0.06 1.52
6:15 am 06:15 Cloudy with Rain 47 8.3 44 6.7 90 90 NNW 18 30 29.65 1004 3 5 0.15 3.81
6:24 am 06:24 Cloudy with Heavy Rain 47 8.3 44 6.7 90 90 NNW 13 20 29.68 1005 3 4 0.21 5.33
6:35 am 06:35 Cloudy with Rain 47 8.3 44 6.7 90 90 N 8 13 29.65 1004 3 5 0.26 6.60
6:39 am 06:39 Cloudy with Rain 46 7.8 44 6.7 93 93 N 6 9 29.65 1004 4 6 0.27 6.86
6:49 am 06:49 Cloudy with Light Rain 46 8 45 7 93 93 NNE 6 9 29.65 1004 5 8 0.28 7.11
6:53 am 06:53 Cloudy with Rain 46 7.8 44 6.7 93 93 N 6 9 29.61 1003 5 8 0.29 7.37
7:53 am 07:53 Cloudy with Light Rain 47 8.3 45 7.2 93 93 Calm 29.60 1002 5 8 0.10 2.54
8:42 am 08:42 Cloudy 48 9 45 7 87 87 WNW 12 19 29.65 1004 7 11 0.00 0.00
8:53 am 08:53 Cloudy 48 8.9 44 6.7 86 86 WNW 15 24 29.64 1004 7 11 0.01 0.25
9:53 am 09:53 Cloudy 47 8.3 43 6.1 86 86 NW 15 24 29.66 1005 10 16 0.00 0.00
10:29 am 10:29 Cloudy 48 8.9 42 5.6 80 80 NW 10 17 29.71 1006 10 16 0.00 0.00
10:36 am 10:36 Mostly Cloudy 48 9 43 6 82 82 W 10 17 29.71 1006 10 16 0.00 0.00
10:53 am 10:53 Mostly Cloudy 49 9.4 42 5.6 77 77 NW 12 19 29.69 1005 10 16 0.00 0.00
11:25 am 11:25 Mostly Cloudy 51 10.6 42 5.6 71 71 NW 14 22 29.71 1006 10 16 0.00 0.00
11:53 am 11:53 Partly Cloudy 52 11.1 40 4.4 64 64 NW 22 35 29.72 1006 10 16 0.00 0.00
12:53 pm 12:53 Sunny 54 12.2 35 1.7 49 49 NW 17 28 29.72 1006 10 16 0.00 0.00
2:37 pm 14:37 Sunny 57 13.9 33 0.6 41 41 NNW 22 35 29.68 1005 10 16 0.00 0.00
2:53 pm 14:53 Sunny 57 13.9 32 0 39 39 NW 17 28 29.70 1006 10 16 0.00 0.00
3:53 pm 15:53 Sunny 57 13.9 31 -0.6 37 37 WNW 17 28 29.72 1007 10 16 0.00 0.00
4:53 pm 16:53 Sunny 57 13.9 29 -1.7 34 34 NW 14 22 29.74 1007 10 16 0.00 0.00
5:53 pm 17:53 Sunny 54 12.2 28 -2.2 37 37 NW 22 35 29.75 1008 10 16 0.00 0.00
6:53 pm 18:53 Clear 50 10 28 -2.2 43 43 NNW 14 22 29.81 1010 10 16 0.00 0.00
7:53 pm 19:53 Clear 48 8.9 28 -2.2 46 46 NNW 8 13 29.85 1011 10 16 0.00 0.00
8:53 pm 20:53 Clear 46 7.8 28 -2.2 50 50 NW 10 17 29.87 1011 10 16 0.00 0.00
9:53 pm 21:53 Clear 45 7.2 26 -3.3 48 48 NW 13 20 29.89 1012 10 16 0.00 0.00
10:53 pm 22:53 Clear 43 6.1 26 -3.3 51 51 NW 14 22 29.91 1013 10 16 0.00 0.00
11:53 pm 23:53 Clear 42 5.6 25 -3.9 51 51 NW 10 17 29.92 1013 10 16 0.00 0.00

Powered by AerisWeather